Вернуться в каталог

HILAT

АктивенНаукаPO
NORAD 14154·PAYLOAD·🇺🇸 United States

Запущен Jun 27, 1983 с Vandenberg Space Force Base

Loading…

Ближайшие Пролёты (ближайшие 24 часа)

TLE

СвежийSource: Space-Track

Эпоха: Sep 14, 2026, 12:41 UTC

1 14154U 83063A   26257.52864428  .00000232  00000-0  69714-4 0  9994
2 14154  82.0208  77.9558 0039724  21.4999 359.4061 14.38756667260433

Отслеживайте HILAT в реальном времени с AllMySat

Download on the App Store